Date_and_time,latitude,longitude,wind_speed,RelWindDirFrom,WindDirFrom,air_pressure,air_temperature,relative_humidity,Temp,platform_speed_wrt_ground,air_pressure_at_mean_sea_level,platform_orientation
2018-07-27 00:00,50.6304616666667,-96.9807533333333,11.8,14.9,7,991.05,22.7,51,21.31,0.0,1016.87,360.0
2018-07-27 00:10,50.630435,-96.9807583333333,12.0,14.7,6,991.08,22.8,51,21.31,0.0,1016.90,360.0
2018-07-27 00:20,50.6304216666667,-96.9807483333333,10.6,14.4,4,991.07,22.9,50,21.32,0.0,1016.88,360.0
2018-07-27 00:30,50.6304233333333,-96.98076,10.4,12.6,8,990.98,22.8,54,21.33,0.0,1016.79,360.0
2018-07-27 00:40,50.630425,-96.9807633333333,10.4,12.5,5,990.93,22.8,53,21.35,0.0,1016.74,360.0
2018-07-27 00:50,50.6304233333333,-96.9807666666667,10.0,12.0,1,990.92,22.9,52,21.36,0.0,1016.71,360.0
2018-07-27 01:00,50.6304233333333,-96.9807566666667,9.2,11.8,355,990.98,22.8,53,21.36,0.0,1016.77,90.0
2018-07-27 01:10,50.630425,-96.980765,9.3,11.3,354,991.01,22.8,53,21.37,0.0,1016.81,90.0
2018-07-27 01:20,50.6304283333333,-96.98079,8.3,12.8,352,991.00,22.8,52,21.38,0.0,1016.79,90.0
2018-07-27 01:30,50.6304233333333,-96.9807816666667,6.3,9.4,342,990.97,22.7,49,21.40,0.0,1016.76,90.0
2018-07-27 01:40,50.6304283333333,-96.9807583333333,5.3,8.2,340,990.95,22.6,49,21.41,0.0,1016.74,90.0
2018-07-27 01:50,50.63043,-96.9807583333333,5.1,7.6,335,991.02,22.2,49,21.42,0.0,1016.82,90.0
2018-07-27 02:00,50.6304333333333,-96.9807616666667,5.7,8.3,332,991.08,21.9,49,21.42,0.0,1016.90,72.3
2018-07-27 02:10,50.630455,-96.980775,6.1,8.5,333,991.16,21.5,50,21.42,0.0,1016.99,72.3
2018-07-27 02:20,50.6304433333333,-96.9807916666667,6.1,8.9,338,991.25,21.3,52,21.42,0.0,1017.10,72.3
2018-07-27 02:30,50.6304366666667,-96.9807683333333,7.6,10.3,344,991.31,21.2,53,21.41,0.0,1017.17,72.3
2018-07-27 02:40,50.630435,-96.980765,7.2,8.6,346,991.40,21.1,55,21.41,0.0,1017.25,72.3
2018-07-27 02:50,50.630435,-96.9807633333333,6.0,8.6,336,991.50,20.8,55,21.41,0.0,1017.37,72.3
2018-07-27 03:00,50.630435,-96.980765,5.8,9.3,333,991.57,20.3,56,21.41,0.0,1017.47,360.0
2018-07-27 03:10,50.6304366666667,-96.980765,6.4,8.9,338,991.62,20.1,57,21.41,0.0,1017.53,360.0
2018-07-27 03:20,50.6304383333333,-96.9807666666667,6.0,8.5,334,991.68,20.1,56,21.40,0.0,1017.59,360.0
2018-07-27 03:30,50.63044,-96.9807666666667,5.1,8.2,326,991.76,19.7,57,21.39,0.0,1017.70,360.0
2018-07-27 03:40,50.63044,-96.980765,5.2,7.7,311,991.88,19.2,58,21.38,0.0,1017.86,360.0
2018-07-27 03:50,50.63044,-96.980765,4.9,7.0,305,992.00,18.6,61,21.38,0.0,1018.02,360.0
2018-07-27 04:00,50.6304416666667,-96.980765,6.0,8.1,314,992.06,18.3,62,21.38,0.0,1018.12,320.5
2018-07-27 04:10,50.63044,-96.9807616666667,6.4,8.8,318,992.13,18.4,62,21.38,0.0,1018.20,320.5
2018-07-27 04:20,50.6304383333333,-96.9807633333333,6.5,8.6,318,992.13,18.2,62,21.38,0.0,1018.22,320.5
2018-07-27 04:30,50.6304416666667,-96.980765,6.1,8.9,323,992.16,18.2,62,21.38,0.0,1018.25,320.5
2018-07-27 04:40,50.6304433333333,-96.9807616666667,5.8,8.2,318,992.14,18.2,62,21.38,0.0,1018.23,320.5
2018-07-27 04:50,50.6304433333333,-96.9807616666667,5.9,8.3,314,992.12,18.0,63,21.37,0.0,1018.25,320.5
2018-07-27 05:00,50.630445,-96.9807616666667,6.0,8.1,311,992.12,17.7,63,21.37,0.0,1018.28,38.0
2018-07-27 05:10,50.6304433333333,-96.98076,6.1,7.8,312,992.10,17.7,63,21.37,0.0,1018.25,38.0
2018-07-27 05:20,50.6304383333333,-96.980765,5.8,8.3,304,992.10,17.6,64,21.36,0.0,1018.27,38.0
2018-07-27 05:30,50.6304316666667,-96.980775,6.4,8.5,299,992.12,17.5,65,21.35,0.0,1018.32,38.0
2018-07-27 05:40,50.6304483333333,-96.9807516666667,6.3,8.6,296,992.15,17.3,66,21.34,0.0,1018.38,38.0
2018-07-27 05:50,50.6304483333333,-96.980755,5.9,8.3,298,992.17,17.0,67,21.34,0.0,1018.43,38.0
2018-07-27 06:00,50.6304483333333,-96.98076,5.7,8.3,303,992.17,16.7,68,21.34,0.0,1018.45,14.5
2018-07-27 06:10,50.6304483333333,-96.9807616666667,5.7,8.1,304,992.17,16.7,68,21.32,0.0,1018.46,14.5
2018-07-27 06:20,50.6304283333333,-96.9807566666667,5.9,7.9,310,992.20,16.4,69,21.31,0.0,1018.50,14.5
2018-07-27 06:30,50.6304366666667,-96.9807633333333,6.7,9.6,312,992.19,16.4,69,21.29,0.0,1018.49,14.5
2018-07-27 06:40,50.6304383333333,-96.9807616666667,5.5,8.6,306,992.22,16.2,70,21.28,0.0,1018.54,14.5
2018-07-27 06:50,50.6304433333333,-96.98076,5.9,8.2,304,992.15,15.9,71,21.27,0.0,1018.49,14.5
2018-07-27 07:00,50.6304433333333,-96.9807583333333,6.4,8.7,301,992.12,15.8,71,21.26,0.0,1018.47,90.0
2018-07-27 07:10,50.6304416666667,-96.9807583333333,6.8,9.1,302,992.11,15.6,72,21.24,0.0,1018.46,90.0
2018-07-27 07:20,50.6304416666667,-96.9807583333333,7.1,9.5,304,992.05,15.6,72,21.24,0.0,1018.42,90.0
2018-07-27 07:30,50.6304416666667,-96.98076,6.8,9.1,304,992.05,15.5,71,21.23,0.0,1018.43,90.0
2018-07-27 07:40,50.630455,-96.980765,5.2,7.4,300,992.08,15.4,72,21.22,0.0,1018.48,90.0
2018-07-27 07:50,50.6304533333333,-96.9807933333333,5.1,7.5,292,992.07,15.1,74,21.20,0.0,1018.50,90.0
2018-07-27 08:00,50.63045,-96.9807616666667,5.3,7.5,289,992.04,14.7,76,21.19,0.0,1018.48,360.0
2018-07-27 08:10,50.6304466666667,-96.9807683333333,6.1,8.3,289,992.03,14.4,77,21.18,0.0,1018.49,360.0
2018-07-27 08:20,50.6304416666667,-96.980765,5.9,8.7,291,992.00,14.4,77,21.17,0.0,1018.48,360.0
2018-07-27 08:30,50.6304416666667,-96.9807633333333,5.7,8.5,297,992.01,14.5,77,21.15,0.0,1018.49,360.0
2018-07-27 08:40,50.6304433333333,-96.9807633333333,5.7,8.4,296,992.03,14.5,77,21.13,0.0,1018.52,360.0
2018-07-27 08:50,50.6304716666667,-96.98082,5.0,8.0,291,992.09,14.4,78,21.12,0.0,1018.59,360.0
2018-07-27 09:00,50.6304466666667,-96.98078,4.2,6.4,297,992.12,14.3,79,21.12,0.0,1018.63,270.0
2018-07-27 09:10,50.6304383333333,-96.9807716666667,3.8,5.9,300,992.13,14.1,81,21.12,0.0,1018.65,270.0
2018-07-27 09:20,50.630435,-96.98077,4.4,6.2,306,992.13,14.1,81,21.11,0.0,1018.66,270.0
2018-07-27 09:30,50.6304366666667,-96.9807666666667,3.9,6.2,303,992.20,14.2,82,21.09,0.0,1018.73,270.0
2018-07-27 09:40,50.630435,-96.980765,4.2,6.8,297,992.22,14.1,82,21.09,0.0,1018.78,270.0
2018-07-27 09:50,50.6304333333333,-96.980765,4.0,7.5,295,992.28,13.8,84,21.08,0.0,1018.86,270.0
2018-07-27 10:00,50.6304233333333,-96.9807633333333,4.8,7.7,303,992.27,13.8,84,21.06,0.0,1018.87,219.5
2018-07-27 10:10,50.63043,-96.9807633333333,3.0,7.3,287,992.37,13.6,85,21.05,0.0,1018.98,219.5
2018-07-27 10:20,50.6304333333333,-96.9807716666667,1.0,3.0,248,992.51,13.2,88,21.04,0.0,1019.14,219.5
2018-07-27 10:30,50.6304216666667,-96.980765,2.8,5.1,290,992.58,13.1,87,21.04,0.0,1019.21,219.5
2018-07-27 10:40,50.6304216666667,-96.980765,4.1,6.4,290,992.68,12.9,88,21.03,0.0,1019.33,219.5
2018-07-27 10:50,50.6304616666667,-96.98079,5.0,7.1,279,992.72,12.7,89,21.01,0.0,1019.39,219.5
2018-07-27 11:00,50.6304483333333,-96.9807666666667,5.8,8.6,280,992.76,12.6,89,20.98,0.0,1019.44,192.6
2018-07-27 11:10,50.63045,-96.9807633333333,6.7,8.6,282,992.80,12.5,89,20.97,0.0,1019.48,192.6
2018-07-27 11:20,50.63045,-96.9807666666667,6.3,9.3,281,992.86,12.4,90,20.96,0.0,1019.55,192.6
2018-07-27 11:30,50.6304533333333,-96.9807683333333,5.3,7.5,289,992.92,12.5,89,20.95,0.0,1019.61,192.6
2018-07-27 11:40,50.63045,-96.9807666666667,5.2,8.1,282,992.98,12.7,88,20.94,0.0,1019.67,192.6
2018-07-27 11:50,50.6304483333333,-96.9807666666667,4.9,6.6,285,993.00,12.8,88,20.94,0.0,1019.69,192.6
2018-07-27 12:00,50.630445,-96.9807666666667,4.7,7.5,287,993.02,13.1,87,20.94,0.0,1019.71,113.6
2018-07-27 12:10,50.63044,-96.9807683333333,5.0,7.7,286,993.04,13.5,85,20.93,0.0,1019.73,113.6
2018-07-27 12:20,50.6304383333333,-96.98076,4.3,6.7,288,993.08,13.8,84,20.93,0.0,1019.76,113.6
2018-07-27 12:30,50.6304366666667,-96.9807633333333,4.3,6.3,279,993.15,14.1,84,20.93,0.0,1019.83,113.6
2018-07-27 12:40,50.6304366666667,-96.98076,4.7,6.5,278,993.16,14.3,84,20.92,0.0,1019.84,113.6
2018-07-27 12:50,50.630435,-96.98076,3.4,5.1,287,993.22,14.6,84,20.91,0.0,1019.89,113.6
2018-07-27 13:00,50.6304333333333,-96.9807616666667,3.3,5.8,286,993.26,15.2,83,20.90,0.0,1019.91,48.3
2018-07-27 13:10,50.6304333333333,-96.9807616666667,3.3,6.0,288,993.32,15.7,82,20.89,0.0,1019.95,48.3
2018-07-27 13:20,50.6304316666667,-96.9807633333333,4.3,6.5,285,993.34,16.1,82,20.88,0.0,1019.95,48.3
2018-07-27 13:30,50.6304316666667,-96.980765,3.8,5.3,275,993.37,16.4,81,20.88,0.0,1019.95,48.3
2018-07-27 13:40,50.6304316666667,-96.980765,3.1,4.5,276,993.33,16.7,81,20.88,0.0,1019.89,48.3
2018-07-27 13:50,50.6304333333333,-96.9807666666667,2.1,3.5,273,993.34,17.3,79,20.88,0.0,1019.86,48.3
2018-07-27 14:00,50.6304283333333,-96.9807716666667,2.3,3.9,275,993.35,17.8,78,20.88,0.0,1019.83,360.0
2018-07-27 14:10,50.630395,-96.9807866666667,1.1,2.8,260,993.39,18.2,77,20.88,0.0,1019.84,360.0
2018-07-27 14:20,50.63043,-96.9807716666667,1.6,3.3,251,993.38,18.7,75,20.87,0.0,1019.79,360.0
2018-07-27 14:30,50.6304316666667,-96.9807533333333,1.9,4.4,256,993.41,18.9,74,20.87,0.0,1019.81,360.0
2018-07-27 14:40,50.63043,-96.9807533333333,1.2,2.7,219,993.38,19.1,74,20.87,0.0,1019.75,360.0
2018-07-27 14:50,50.6304066666667,-96.9807433333333,0.6,2.3,205,993.37,19.5,72,20.87,0.0,1019.70,360.0
2018-07-27 15:00,50.6304383333333,-96.98076,2.4,4.4,216,993.39,19.7,70,20.86,0.0,1019.68,90.0
2018-07-27 15:10,50.63044,-96.98077,2.5,4.3,200,993.34,20.0,69,20.85,0.0,1019.60,90.0
2018-07-27 15:20,50.6304383333333,-96.980765,0.6,5.6,35,993.34,20.5,70,20.85,0.0,1019.57,90.0
2018-07-27 15:30,50.630415,-96.980735,2.5,4.1,91,993.34,21.2,69,20.86,0.0,1019.52,90.0
2018-07-27 15:40,50.6304216666667,-96.980755,2.3,4.9,89,993.31,21.8,64,20.87,0.0,1019.44,90.0
2018-07-27 15:50,50.6304183333333,-96.9807516666667,3.5,4.5,90,993.36,21.9,66,20.88,0.0,1019.46,90.0
2018-07-27 16:00,50.6304166666667,-96.9807533333333,4.1,5.2,95,993.41,22.5,65,20.89,0.0,1019.47,360.0
2018-07-27 16:10,50.630415,-96.98076,4.0,5.6,95,993.42,22.6,66,20.90,0.0,1019.45,360.0
2018-07-27 16:20,50.6304166666667,-96.9807616666667,3.7,5.1,90,993.37,22.7,65,20.91,0.0,1019.39,360.0
2018-07-27 16:30,50.6304116666667,-96.9807933333333,3.7,5.1,90,993.38,22.6,66,20.92,0.0,1019.39,360.0
2018-07-27 16:40,50.6303983333333,-96.9807866666667,3.5,4.6,100,993.35,23.1,64,20.91,0.0,1019.31,360.0
2018-07-27 16:50,50.6304,-96.9807966666667,3.5,4.3,98,993.36,23.4,63,20.90,0.0,1019.30,360.0
2018-07-27 17:00,50.6304333333333,-96.9807883333333,3.8,5.3,95,993.30,23.5,62,20.88,0.0,1019.22,293.6
2018-07-27 17:10,50.6304483333333,-96.9807616666667,4.1,5.4,96,993.31,23.6,62,20.86,0.0,1019.21,293.6
2018-07-27 17:20,50.6304383333333,-96.980755,4.1,6.1,96,993.35,23.9,61,20.85,0.0,1019.21,293.6
2018-07-27 17:30,50.6304383333333,-96.9807566666667,4.7,6.5,90,993.38,24.0,61,20.85,0.0,1019.21,293.6
2018-07-27 17:40,50.63041,-96.9807433333333,5.5,6.7,86,993.40,23.7,61,20.85,0.0,1019.24,293.6
2018-07-27 17:50,50.6304316666667,-96.9807633333333,5.7,7.5,84,993.32,23.5,62,20.85,0.0,1019.14,293.6
2018-07-27 18:00,50.6304333333333,-96.980765,6.0,7.5,83,993.23,23.4,61,20.86,0.0,1019.05,194.5
2018-07-27 18:10,50.6304333333333,-96.9807683333333,5.2,6.5,86,993.19,23.5,59,20.87,0.0,1018.99,194.5
2018-07-27 18:20,50.6304316666667,-96.98077,5.9,7.5,79,993.19,23.5,59,20.88,0.0,1019.00,194.5
2018-07-27 18:30,50.6304366666667,-96.9807633333333,6.8,8.1,77,993.14,23.3,56,20.88,0.0,1018.93,194.5
2018-07-27 18:40,50.630435,-96.9807566666667,7.3,8.7,79,993.13,23.3,57,20.89,0.0,1018.91,194.5
2018-07-27 18:50,50.6304333333333,-96.9807566666667,7.4,9.1,80,993.16,23.5,56,20.91,0.0,1018.93,194.5
2018-07-27 19:00,50.6304333333333,-96.980755,6.6,7.8,79,993.16,23.6,56,20.99,0.0,1018.92,360.0
2018-07-27 19:10,50.6304316666667,-96.980755,6.6,7.8,76,993.13,23.6,55,21.08,0.0,1018.88,360.0
2018-07-27 19:20,50.630435,-96.9807716666667,5.5,6.5,80,993.06,23.9,51,21.08,0.0,1018.79,360.0
2018-07-27 19:30,50.63045,-96.98077,4.6,6.0,86,992.99,24.5,49,21.07,0.0,1018.71,360.0
2018-07-27 19:40,50.630455,-96.9807733333333,4.8,6.1,82,992.88,24.8,45,21.17,0.0,1018.58,360.0
2018-07-27 19:50,50.6304416666667,-96.9807716666667,3.9,5.1,87,992.75,25.2,43,21.24,0.0,1018.44,360.0
2018-07-27 20:00,50.6304383333333,-96.980775,3.9,5.2,95,992.75,25.6,42,21.25,0.0,1018.42,49.4
2018-07-27 20:10,50.6304416666667,-96.9807716666667,3.5,5.2,105,992.68,25.8,42,21.21,0.0,1018.33,49.4
2018-07-27 20:20,50.6304083333333,-96.9807566666667,3.9,5.3,104,992.63,25.8,41,21.22,0.0,1018.29,49.4
2018-07-27 20:30,50.6304466666667,-96.9807766666667,4.1,5.3,108,992.55,25.5,43,21.27,0.0,1018.22,49.4
2018-07-27 20:40,50.6304416666667,-96.9807666666667,4.4,5.7,109,992.44,25.4,42,21.31,0.0,1018.10,49.4
2018-07-27 20:50,50.6304233333333,-96.9807566666667,3.2,4.8,128,992.40,25.1,41,21.37,0.0,1018.07,49.4
2018-07-27 21:00,50.630435,-96.9807616666667,3.1,4.2,134,992.43,24.7,40,21.63,0.0,1018.12,48.3
2018-07-27 21:10,50.6304566666667,-96.9807666666667,3.1,4.2,116,992.41,25.3,39,21.87,0.0,1018.07,48.3
2018-07-27 21:20,50.6304516666667,-96.980765,2.8,4.2,109,992.44,25.8,37,22.11,0.0,1018.05,48.3
2018-07-27 21:30,50.6304583333333,-96.9807616666667,2.5,3.6,109,992.44,26.5,36,22.17,0.0,1018.00,48.3
2018-07-27 21:40,50.630425,-96.9808033333333,3.1,4.6,110,992.39,26.3,36,22.04,0.0,1017.95,48.3
2018-07-27 21:50,50.6304483333333,-96.9807733333333,3.2,4.5,112,992.37,26.5,37,22.34,0.0,1017.89,48.3
2018-07-27 22:00,50.63043,-96.9807933333333,3.7,5.0,110,992.33,26.1,38,22.45,0.0,1017.87,258.2
2018-07-27 22:10,50.6304416666667,-96.9807533333333,4.7,5.6,103,992.23,26.2,38,22.61,0.0,1017.76,258.2
2018-07-27 22:20,50.6304433333333,-96.980755,4.3,6.2,100,992.14,26.9,37,22.55,0.0,1017.66,258.2
2018-07-27 22:30,50.6304466666667,-96.980755,3.5,4.6,104,992.15,27.1,36,22.38,0.0,1017.65,258.2
2018-07-27 22:40,50.6304483333333,-96.9807533333333,4.0,5.3,90,992.12,27.2,35,22.20,0.0,1017.63,258.2
2018-07-27 22:50,50.6304483333333,-96.9807566666667,4.9,6.7,84,992.19,27.1,35,22.21,0.0,1017.72,258.2
2018-07-27 23:00,50.6304483333333,-96.98076,5.7,7.5,84,992.12,26.6,35,22.12,0.0,1017.65,60.8
2018-07-27 23:10,50.6304483333333,-96.98076,5.7,7.0,83,992.06,26.6,35,22.26,0.0,1017.57,60.8
2018-07-27 23:20,50.6304483333333,-96.9807633333333,4.1,5.8,90,992.09,27.0,33,22.48,0.0,1017.55,60.8
2018-07-27 23:30,50.6304483333333,-96.9807633333333,3.1,4.1,93,992.23,26.7,35,22.40,0.0,1017.71,60.8
2018-07-27 23:40,50.6304416666667,-96.9807766666667,1.7,3.0,103,992.42,26.0,36,22.39,0.0,1017.93,60.8
